Flag for Malaysia Weather past 2 weeks in Langkawi, Malaysia

Now
84 °F

Broken clouds.


Feels Like: 94 °F
Forecast: 79 / 88 °F
Wind: 2 mph from West

Location: Langkawi

Current Time: Jul 30, 2015 at 6:55:15 PM

Latest Report: Jul 30, 2015 at 6:00 PM


Visibility: N/A

Pressure: 29.80 "Hg

Humidity: 79%

Dew point: 77 °F

Location of LangkawiLocation

Historic Weather in Langkawi — Graph

°F

Langkawi temperature yesterday

Maximum temperature yesterday: 90 °F (at 1:00 PM)
Minimum temperature yesterday: 77 °F (at 3:00 PM)
Average temperature yesterday: 81 °F

Past Weeks' High & Low Weather Summary

 TemperatureHumidityPressure
High91 °F (Jul 22, 2:00 PM)94% (Jul 15, 11:00 PM)29.95 "Hg (Jul 15, 11:00 PM)
Low75 °F (Jul 21, 7:00 AM)59% (Jul 22, 2:00 PM)29.68 "Hg (Jul 16, 5:00 PM)
Average82 °F84%29.83 "Hg
* Reported Jul 15 5:00 PM — Jul 30 5:00 PM, Langkawi, Weather by CustomWeather, © 2015

Note: Actual official high and low records may vary slightly from our data, if they occured in-between our weather recording intervals... More about our weather records

Advertising

Langkawi weather history for previous 24 hours

 ConditionsComfort  
Time TempWeatherWind HumidityBarometerVisibility
5:00 PM
Thu, Jul 30
84 °FBroken clouds.6 mph79%29.77 "HgN/A
4:00 PM84 °FPartly sunny.5 mph79%29.80 "HgN/A
3:00 PM84 °FPartly sunny.5 mph79%29.83 "HgN/A
2:00 PM82 °FThunderstorms. Broken clouds.8 mph79%29.86 "Hg6 mi
1:00 PM84 °FPartly sunny.7 mph70%29.89 "Hg6 mi
12:00 PM86 °FPartly sunny.6 mph79%29.89 "HgN/A
11:00 AM84 °FPartly sunny.No wind84%29.89 "HgN/A
10:00 AM84 °FPartly sunny.1 mph84%29.89 "Hg6 mi
9:00 AM81 °FBroken clouds.1 mph89%29.89 "Hg6 mi
8:00 AM77 °FBroken clouds.2 mph94%29.86 "Hg4 mi
7:00 AM77 °FPartly cloudy.3 mph89%29.83 "Hg4 mi
6:00 AM77 °FPartly cloudy.1 mph94%29.83 "Hg4 mi
5:00 AM77 °FPartly cloudy.No wind94%29.83 "Hg4 mi
4:00 AM77 °FPartly cloudy.No wind94%29.83 "Hg4 mi
3:00 AM77 °FPartly cloudy.1 mph94%29.83 "Hg4 mi
2:00 AM79 °FPartly cloudy.No wind94%29.86 "Hg4 mi
1:00 AM79 °FPartly cloudy.No wind89%29.89 "Hg4 mi
12:00 AM79 °FPartly cloudy.1 mph89%29.89 "Hg4 mi
11:00 PM
Wed, Jul 29
77 °FPartly cloudy.1 mph94%29.89 "Hg4 mi
10:00 PM79 °FPartly cloudy.3 mph94%29.86 "Hg4 mi
9:00 PM79 °FPartly cloudy.2 mph94%29.83 "Hg4 mi
8:00 PM79 °FPartly cloudy.1 mph94%29.83 "Hg4 mi
7:00 PM81 °FBroken clouds.2 mph89%29.80 "Hg6 mi
6:00 PM81 °FBroken clouds.3 mph89%29.77 "HgN/A
Weather by CustomWeather, © 2015

See weather overviewHow to use our weather pages